WB5OMR-9 Weather Reports


Display with metric or nautical units.
time (UTC)temp
F
wind
direction
speed
MPH
gust
MPH
rain 1hr
in
rain 24hr
in
rain mn
in
humidity
%
barometer
mb
20260831173129 99 157 0.0 0.0 0.00 0.00 0.00 46 1016.3
20260831172128 98 157 0.0 0.0 0.00 0.00 0.00 47 1016.3
20260831171127 97 157 0.0 0.0 0.00 0.00 0.00 49 1016.3
20260831170124 97 180 0.0 0.0 0.00 0.00 0.00 49 1016.6
20260831165124 97 180 0.0 0.0 0.00 0.00 0.00 50 1016.6
20260831164123 95 135 0.0 0.0 0.00 0.00 0.00 54 1016.6
20260831163122 94 135 0.0 0.0 0.00 0.00 0.00 55 1016.6
20260831162120 93 157 0.0 0.0 0.00 0.00 0.00 56 1016.6
20260831161119 93 157 0.0 0.0 0.00 0.00 0.00 57 1016.6
20260831160119 92 157 0.0 0.0 0.00 0.00 0.00 60 1016.6
20260831155117 91 202 0.0 0.0 0.00 0.00 0.00 62 1016.6
20260831154116 91 202 0.0 0.0 0.00 0.00 0.00 63 1016.6
20260831153115 90 157 0.0 0.0 0.00 0.00 0.00 66 1016.6
20260831152114 88 157 0.0 0.0 0.00 0.00 0.00 67 1016.6
20260831151112 88 225 0.0 0.0 0.00 0.00 0.00 69 1016.6
20260831150111 87 157 0.0 0.0 0.00 0.00 0.00 70 1016.3
20260831145028 86 157 0.0 0.0 0.00 0.00 0.00 74 1016.3
20260831143945 85 157 0.0 0.0 0.00 0.00 0.00 75 1016.3
20260831142901 84 135 0.0 0.0 0.00 0.00 0.00 77 1016.3
20260831141901 83 157 0.0 0.0 0.00 0.00 0.00 79 1016.3
20260831140900 83 135 0.0 0.0 0.00 0.00 0.00 80 1016.3
20260831135858 82 112 0.0 0.0 0.00 0.00 0.00 81 1016.3
20260831134858 81 135 0.0 0.0 0.00 0.00 0.00 83 1015.9
20260831133856 80 90 0.0 0.0 0.00 0.00 0.00 84 1015.9
20260831132855 80 135 0.0 0.0 0.00 0.00 0.00 85 1015.9
20260831131855 79 112 0.0 0.0 0.00 0.00 0.00 85 1015.9
20260831130854 78 90 0.0 0.0 0.00 0.00 0.00 85 1015.9
20260831125853 78 112 0.0 0.0 0.00 0.00 0.00 85 1015.6
20260831124852 78 90 0.0 0.0 0.00 0.00 0.00 85 1015.6
20260831123850 78 90 0.0 0.0 0.00 0.00 0.00 85 1015.6
20260831122849 78 112 0.0 0.0 0.00 0.00 0.00 85 1015.2
20260831121847 78 112 0.0 0.0 0.00 0.00 0.00 84 1015.2
20260831120804 78 112 0.0 0.0 0.00 0.00 0.00 84 1015.2
20260831115719 78 112 0.0 0.0 0.00 0.00 0.00 84 1014.9
20260831114636 78 112 0.0 0.0 0.00 0.00 0.00 83 1015.2
20260831113635 78 112 0.0 0.0 0.00 0.00 0.00 83 1015.2
20260831112634 79 90 0.0 0.0 0.00 0.00 0.00 83 1015.2
20260831111633 79 90 0.0 0.0 0.00 0.00 0.00 83 1015.2
20260831110632 79 90 0.0 0.0 0.00 0.00 0.00 83 1015.2
20260831105631 79 112 0.0 0.0 0.00 0.00 0.00 83 1015.2
20260831104630 79 112 0.0 0.0 0.00 0.00 0.00 83 1015.2
20260831103628 79 112 0.0 0.0 0.00 0.00 0.00 82 1015.2
20260831102627 79 112 0.0 0.0 0.00 0.00 0.00 82 1015.2
20260831101543 79 112 0.0 0.0 0.00 0.00 0.00 82 1015.2
20260831100541 79 67 0.0 0.0 0.00 0.00 0.00 82 1015.2
20260831095540 79 67 0.0 0.0 0.00 0.00 0.00 81 1015.2
20260831094539 80 112 0.0 0.0 0.00 0.00 0.00 81 1015.2
20260831093538 80 135 0.0 0.0 0.00 0.00 0.00 81 1015.2
20260831092537 80 135 0.0 0.0 0.00 0.00 0.00 81 1015.2
20260831091536 80 135 0.0 0.0 0.00 0.00 0.00 81 1015.2
20260831090535 80 135 0.0 0.0 0.00 0.00 0.00 80 1015.2
20260831085534 80 112 0.0 0.0 0.00 0.00 0.00 80 1015.2
20260831084533 80 112 0.0 0.0 0.00 0.00 0.00 79 1015.2
20260831083532 80 90 0.0 0.0 0.00 0.00 0.00 79 1015.2
20260831082531 80 90 0.0 0.0 0.00 0.00 0.00 79 1015.6
20260831081530 80 135 0.0 0.0 0.00 0.00 0.00 79 1015.6
20260831080529 80 157 0.0 0.0 0.00 0.00 0.00 79 1015.6
20260831075527 80 112 0.0 0.0 0.00 0.00 0.00 79 1015.6
20260831074527 80 135 0.0 0.0 0.00 0.00 0.00 78 1015.6
20260831073525 80 135 0.0 0.0 0.00 0.00 0.00 77 1015.6
20260831072524 80 135 0.0 0.0 0.00 0.00 0.00 77 1015.6
20260831071440 81 157 0.0 0.0 0.00 0.00 0.00 76 1015.6
20260831070439 81 157 0.0 0.0 0.00 0.00 0.00 76 1015.9
20260831065439 81 157 0.0 0.0 0.00 0.00 0.00 75 1015.6
20260831064438 81 157 0.0 0.0 0.00 0.00 0.00 74 1015.6
20260831063437 81 135 0.0 0.0 0.00 0.00 0.00 74 1015.6
20260831062435 82 135 0.0 0.0 0.00 0.00 0.00 73 1015.6
20260831061434 82 157 0.0 0.0 0.00 0.00 0.00 73 1015.6
20260831060432 82 135 0.0 0.0 0.00 0.00 0.00 72 1015.6
20260831055431 82 180 0.0 0.0 0.00 0.00 0.00 71 1015.6
20260831054430 83 157 0.0 0.0 0.00 0.00 0.00 70 1015.6
20260831053346 83 157 0.0 0.0 0.00 0.00 0.00 69 1015.2
20260831052345 83 157 0.0 0.0 0.00 0.00 0.00 67 1015.2
20260831051343 84 112 0.0 0.0 0.00 0.00 0.00 65 1015.2
20260831050342 84 135 0.0 0.0 0.00 0.00 0.00 65 1015.2
20260831045259 84 135 0.0 0.0 0.00 0.00 0.00 64 1015.2
20260831044258 85 180 0.0 0.0 0.00 0.00 0.00 62 1015.2
20260831043257 85 157 0.0 0.0 0.00 0.00 0.00 60 1014.9
20260831042256 85 157 0.0 0.0 0.00 0.00 0.00 60 1014.9
20260831041255 86 157 0.0 0.0 0.00 0.00 0.00 59 1014.9
20260831040253 86 157 0.0 0.0 0.00 0.00 0.00 58 1014.9
20260831035210 87 135 0.0 0.0 0.00 0.00 0.00 57 1014.6
20260831034126 87 180 0.0 0.0 0.00 0.00 0.00 56 1014.6
20260831033125 88 135 0.0 0.0 0.00 0.00 0.00 55 1014.6
20260831032125 88 180 0.0 0.0 0.00 0.00 0.00 55 1014.6
20260831031124 89 135 0.0 0.0 0.00 0.00 0.00 54 1014.2
20260831030122 89 135 0.0 0.0 0.00 0.00 0.00 53 1013.9
20260831025121 90 157 0.0 0.0 0.00 0.00 0.00 52 1013.5
20260831024120 90 90 0.0 0.0 0.00 0.00 0.00 51 1012.9
20260831023119 91 112 0.0 0.0 0.00 0.00 0.00 50 1013.2
20260831022118 91 112 0.0 0.0 0.00 0.00 0.00 49 1013.5
20260831021035 92 135 0.0 0.0 0.00 0.00 0.00 49 1014.2
20260831015952 92 157 0.0 0.0 0.00 0.00 0.00 48 1013.5
20260831014908 92 112 0.0 0.0 0.00 0.00 0.00 47 1013.2
20260831013907 93 135 0.0 0.0 0.00 0.00 0.00 45 1013.2
20260831012906 93 135 0.0 0.0 0.00 0.00 0.00 43 1013.2
20260831011905 94 112 0.0 0.0 0.00 0.00 0.00 40 1012.9
20260831010904 95 112 0.0 0.0 0.00 0.00 0.00 40 1012.9
20260831005903 95 135 0.0 0.0 0.00 0.00 0.00 39 1012.5
20260831004902 96 112 0.0 0.0 0.00 0.00 0.00 39 1012.9
20260831003819 97 135 0.0 0.0 0.00 0.00 0.00 39 1012.5
20260831002736 97 135 0.0 0.0 0.00 0.00 0.00 38 1012.5
20260831001735 98 157 0.0 0.0 0.00 0.00 0.00 38 1012.2
20260831000652 99 135 0.0 0.0 0.00 0.00 0.00 37 1012.2
20260830235607 100 247 0.0 0.0 0.00 0.00 0.00 37 1012.5
20260830234524 100 247 0.0 0.0 0.00 0.00 0.00 36 1012.5
20260830233440 101 247 0.0 0.0 0.00 0.00 0.00 36 1012.5
20260830232439 102 247 0.0 0.0 0.00 0.00 0.00 35 1012.5
20260830231438 102 90 0.0 0.0 0.00 0.00 0.00 35 1012.5
20260830230436 102 270 0.0 0.0 0.00 0.00 0.00 35 1012.5
20260830225353 102 90 0.0 0.0 0.00 0.00 0.00 36 1012.5
20260830224352 102 67 0.0 0.0 0.00 0.00 0.00 35 1012.5
20260830223351 102 135 0.0 0.0 0.00 0.00 0.00 36 1012.5
20260830222350 102 157 0.0 0.0 0.00 0.00 0.00 36 1012.9
20260830221349 103 90 0.0 0.0 0.00 0.00 0.00 36 1012.9
20260830220347 104 112 0.0 0.0 0.00 0.00 0.00 35 1012.9
20260830215346 104 112 0.0 0.0 0.00 0.00 0.00 35 1012.9
20260830214345 103 135 0.0 0.0 0.00 0.00 0.00 36 1012.9
20260830213343 104 90 0.0 0.0 0.00 0.00 0.00 36 1013.2
20260830212342 104 135 0.0 0.0 0.00 0.00 0.00 36 1013.2
20260830211259 103 180 0.0 0.0 0.00 0.00 0.00 37 1013.2
20260830210216 102 90 0.0 0.0 0.00 0.00 0.00 37 1013.2
20260830205215 103 157 0.0 0.0 0.00 0.00 0.00 37 1013.5
20260830204131 104 0 0.0 0.0 0.00 0.00 0.00 36 1013.9
20260830203130 104 112 0.0 0.0 0.00 0.00 0.00 37 1013.9
20260830202129 102 135 0.0 0.0 0.00 0.00 0.00 38 1013.9
20260830201127 103 135 0.0 0.0 0.00 0.00 0.00 38 1014.6
20260830200044 102 112 0.0 0.0 0.00 0.00 0.00 38 1014.9
20260830195000 103 45 0.0 0.0 0.00 0.00 0.00 38 1014.9
20260830194000 103 112 0.0 0.0 0.00 0.00 0.00 38 1015.2
20260830192959 103 135 0.0 0.0 0.00 0.00 0.00 38 1015.2
20260830191958 104 135 0.0 0.0 0.00 0.00 0.00 38 1015.6
20260830190956 103 157 0.0 0.0 0.00 0.00 0.00 39 1015.9
20260830185955 100 112 0.0 0.0 0.00 0.00 0.00 41 1015.9
20260830184912 101 157 0.0 0.0 0.00 0.00 0.00 40 1015.6
20260830183828 100 180 0.0 0.0 0.00 0.00 0.00 40 1015.6
20260830182827 100 157 0.0 0.0 0.00 0.00 0.00 42 1015.2
20260830181826 101 135 0.0 0.0 0.00 0.00 0.00 41 1015.6
20260830180825 101 157 0.0 0.0 0.00 0.00 0.00 41 1015.9
20260830175824 100 157 0.0 0.0 0.00 0.00 0.00 42 1016.3
20260830174823 100 180 0.0 0.0 0.00 0.00 0.00 43 1016.3
20260830173822 100 247 0.0 0.0 0.00 0.00 0.00 44 1016.6